Regional Weather Roundup
Issued by NWS

Home | Current Version | Previous Version | Graphics & Text | Print | Product List | Glossary Off
Versions: 1 2 3 4 5 6 7 8 9 10 11 12 13 14 15 16 17 18 19 20 21 22 23 24 25 26 27 28 29 30 31 32 33 34 35 36 37 38 39 40 41 42 43 44 45 46 47 48 49 50

000
ASUS43 KDMX 271603
RWRIA

WEATHER ROUNDUP FOR IOWA
NATIONAL WEATHER SERVICE DES MOINES IA
1100 AM CDT TUE SEP 27 2016

NOTE: "FAIR" INDICATES FEW OR NO CLOUDS BELOW 12,000 FEET WITH NO
SIGNIFICANT WEATHER AND/OR OBSTRUCTIONS TO VISIBILITY.

* - THESE STATIONS ARE NOT NWS STATIONS...THUS NOT UNDER NWS
QUALITY CONTROL.  THEY ALSO DO NOT REPORT WEATHER SUCH
AS PRECIPITATION OR FOG.

IAZ001>003-012>014-020>022-031>034-043>046-271700-
   NORTHWEST IOWA

CITY           SKY/WX    TMP DP  RH WIND       PRES   REMARKS
CARROLL *      SUNNY     66  41  39 W12       29.98S
CHEROKEE *     SUNNY     64  40  40 W15       29.98F
DENISON *      SUNNY     66  41  39 W10       29.98F
LE MARS *      SUNNY     64  43  45 W8G15     30.00S
ORANGE CITY *  SUNNY     63  43  48 NW14      29.99S
SHELDON *      SUNNY     63  41  45 W9G17     29.96F
SIOUX CITY     SUNNY     66  46  48 VRB6      30.00F
SPENCER        SUNNY     63  38  39 W17       29.95F
STORM LAKE *   SUNNY     64  39  39 NW16      29.97F
$$

IAZ055>058-069>071-079>083-090>094-271700-
   SOUTHWEST IOWA

CITY           SKY/WX    TMP DP  RH WIND       PRES   REMARKS
ATLANTIC *     SUNNY     68  39  34 W12G17    30.00F
AUDUBON *      SUNNY     66  43  42 W5        30.00F
CLARINDA *       N/A     70  43  37 MISG      30.03F
COUNCIL BLFS * SUNNY     68  45  42 W3        30.02F
CRESTON *      SUNNY     66  41  39 NW13G21   30.01F
HARLAN  *      SUNNY     68  41  37 NW14      30.04S
LAMONI         SUNNY     68  44  42 NW7       30.00F
RED OAK *      SUNNY     70  41  35 NW8       30.01F
SHENANDOAH *   SUNNY     70  45  40 VRB5      30.03S
$$

IAZ047>049-059>061-072>074-084-271700-
   CENTRAL IOWA

CITY           SKY/WX    TMP DP  RH WIND       PRES   REMARKS
AMES           SUNNY     65  40  39 W15       29.95F
ANKENY *         N/A    N/A N/A N/A MISG        N/A
BOONE *        SUNNY     64  39  39 W12G20    29.95F
CHARITON *       N/A     68  39  34 NW14      29.97F
DES MOINES     MOSUNNY   67  43  41 W10       29.96F
GRINNELL*      SUNNY     64  40  40 W14       29.95F
KNOXVILLE *    SUNNY     66  37  34 NW13      29.96F
MARSHALLTOWN   SUNNY     63  40  42 NW16G23   29.92F
NEWTON *       SUNNY     64  39  39 W12G17    29.94F
PELLA *        SUNNY     64  43  45 W10       29.97F
PERRY *          N/A     68  38  33 W14G23    29.97F
$$

IAZ004>006-015-016-023>025-035-036-271700-
   NORTH CENTRAL IOWA

CITY           SKY/WX    TMP DP  RH WIND       PRES   REMARKS
ALGONA *       SUNNY     63  37  39 NW14      29.94F
CLARION *      SUNNY     61  39  44 NW13G20   29.93F
ESTHERVILLE    SUNNY     60  36  40 NW15G21   29.94F
FORT DODGE *   SUNNY     64  43  45 W12G18    29.95F
MASON CITY     SUNNY     60  37  42 NW18      29.92F
FOREST CITY *    N/A     61  36  39 NW12G18   29.91F
WEBSTER CITY * SUNNY     64  39  39 W12G18    29.92F
IOWA FALLS *     N/A     63  37  38 W14       29.94S
$$

IAZ007>011-017>019-026>030-037>042-050>054-066-271700-
   NORTHEAST IOWA

CITY           SKY/WX    TMP DP  RH WIND       PRES   REMARKS
CEDAR RAPIDS   SUNNY     63  41  44 W16       29.91F
CHARLES CITY * SUNNY     61  34  36 W16G23    29.89F
CLINTON *      SUNNY     64  39  39 W15       29.89F
DECORAH *      SUNNY     57  41  54 NW14G24   29.83F
DUBUQUE        SUNNY     61  38  42 NW18G29   29.86F
MONTICELLO *   SUNNY     63  37  39 W15G22    29.88F
OELWEIN *      SUNNY     61  37  41 W20       29.88F
WATERLOO       SUNNY     63  37  38 W13G21    29.89F
$$

IAZ064-065-067-068-078-271700-
   EAST CENTRAL IOWA

CITY           SKY/WX    TMP DP  RH WIND       PRES   REMARKS
DAVENPORT      SUNNY     65  35  33 W17G24    29.90F
IOWA CITY      SUNNY     64  41  42 W12G17    29.93F
MUSCATINE *    SUNNY     68  34  28 W15G22    29.93S
QUAD CITIES    SUNNY     66  40  38 W18G24    29.90F
$$

IAZ062-063-075>077-085>089-095>099-271700-
   SOUTHEAST IOWA

CITY           SKY/WX    TMP DP  RH WIND       PRES   REMARKS
BURLINGTON     SUNNY     68  40  35 W10       29.94F
FAIRFIELD *    SUNNY     68  34  28 W13G25    29.94F
FORT MADISON * SUNNY     70  37  30 W10G17    29.96S
KEOKUK *       SUNNY     70  43  37 W9        29.96F
OSKALOOSA *      N/A     67  36  31 W15       29.96F
CENTERVILLE *    N/A     72  39  30 W6        30.00F
OTTUMWA        SUNNY     68  37  32 NW16G22   29.96F
WASHINGTON *     N/A    N/A N/A N/A MISG        N/A
$$

ABBREVIATIONS USED IN REMARKS
   TC - TEMPERATURES IN CELSIUS
  WCI - WIND CHILL INDEX
   HX - HEAT INDEX
  VSB - VISIBILITY
$$





USA.gov is the U.S. government's official web portal to all federal, state and local government web resources and services.